Greenwood, Nova Scotia

9:52 AM AST on December 11, 2016 (GMT -0400)
Greenwood

Weather History for CYZX - April, 2014

Change the Weather History Date:

Saturday, April 12, 2014

  Actual Average Record
Temperature  
Mean Temperature 48 °F -  
Max Temperature 56 °F 54 °F 64 °F (2006)
Min Temperature 40 °F 35 °F 23 °F (1998)
Degree Days  
Heating Degree Days 17    
Moisture  
Dew Point 41 °F    
Average Humidity 82    
Maximum Humidity 100    
Minimum Humidity 48    
Precipitation  
Precipitation 0.16 in 0.10 in - ()
Sea Level Pressure  
Sea Level Pressure 30.05 in    
Wind  
Wind Speed 4 mph ()    
Max Wind Speed 15 mph    
Max Gust Speed -    
Visibility 10.5 miles    
Events Rain    
Averages and records for this station are not official NWS values.
T = Trace of Precipitation, MM = Missing Value Source: Averaged Metar Reports

Daily Weather History Graph

Daily Weather History Graph

Search for Another Location

Airport or City:

Trip Planner

Search our weather history database for the weather conditions in past years. The results will help you decide how hot, cold, wet, or windy it might be!

Date:

Astronomy

Apr. 12, 2014 Rise Set
Actual Time 6:40 AM ADT 8:01 PM ADT
Civil Twilight 6:09 AM ADT 8:31 PM ADT
Nautical Twilight 5:33 AM ADT 9:08 PM ADT
Astronomical Twilight 4:54 AM ADT 9:47 PM ADT
Moon 5:29 PM ADT (4/12) 5:12 AM ADT (4/12)
Length of Visible Light 14h 21m
Length of Day
13h 20m
Waxing Gibbous, 92% of the Moon is Illuminated
Apr 12
Waxing Gibbous
Apr 15
Full
Apr 22
Last Quarter
Apr 29
New
May 7
First Quarter

Hourly Weather History & Observations

Time (ADT) Temp. Windchill Dew Point Humidity Pressure Visibility Wind Dir Wind Speed Gust Speed Precip Events Conditions
12:00 AM 44.6 °F 42.2 °F 39.2 °F 81% 30.04 in 15.0 mi SSW 4.6 mph - N/A   Overcast
1:00 AM 44.6 °F - 41.0 °F 87% 30.04 in 15.0 mi Calm Calm - N/A   Mostly Cloudy
2:00 AM 44.6 °F - 41.0 °F 87% 30.04 in 15.0 mi Calm Calm - N/A   Overcast
3:00 AM 43 °F - 40 °F 87% 30.03 in 15 mi SE 3.5 mph - -   Overcast
3:00 AM 42.8 °F - 41.0 °F 93% 30.03 in 15.0 mi SE 2.3 mph - N/A   Overcast
3:51 AM - - - N/A% - 15.0 mi NNE 2.3 mph - N/A Rain Light Rain
4:00 AM 42.8 °F - 39.2 °F 87% 30.05 in 15.0 mi Calm Calm - N/A Rain Light Rain
5:00 AM 41.0 °F 37.1 °F 41.0 °F 100% 30.04 in 15.0 mi NE 5.8 mph - N/A Rain Light Rain
6:00 AM 41.0 °F 39.0 °F 41.0 °F 100% 30.05 in 8.0 mi North 3.5 mph - N/A Rain Light Rain
7:00 AM 41.0 °F 39.0 °F 41.0 °F 100% 30.05 in 9.0 mi ENE 3.5 mph - N/A Rain Light Rain
7:49 AM - - - N/A% - 4.0 mi East 4.6 mph - N/A Rain Light Rain
8:00 AM 41.0 °F 38.0 °F 41.0 °F 100% 30.05 in 3.0 mi East 4.6 mph - N/A Rain Light Rain
9:00 AM 42 °F - 42 °F 99% 30.06 in 3 mi ENE 5.8 mph - - Rain Light Rain
9:00 AM 41.0 °F 35.8 °F 41.0 °F 100% 30.05 in 3.0 mi ENE 8.1 mph - N/A Rain Light Rain
9:40 AM - - - N/A% - 3.0 mi ENE 8.1 mph - N/A Rain Light Rain
10:00 AM 42.8 °F 38.6 °F 42.8 °F 100% 30.03 in 3.0 mi NE 6.9 mph - N/A Rain Light Rain
11:00 AM 42.8 °F 40.1 °F 42.8 °F 100% 30.04 in 3.0 mi NE 4.6 mph - N/A Rain Light Rain
11:17 AM - - - N/A% - 2.0 mi NE 3.5 mph - N/A Rain Light Rain
12:00 PM 42.8 °F 39.3 °F 42.8 °F 100% 30.03 in 2.0 mi NE 5.8 mph - N/A Rain Light Rain
1:00 PM 44.6 °F 43.1 °F 42.8 °F 93% 30.03 in 3.0 mi ENE 3.5 mph - N/A Rain Light Rain
1:13 PM - - - N/A% - 6.0 mi ENE 4.6 mph - N/A   Overcast
2:00 PM 44.6 °F - 42.8 °F 93% 30.02 in 9.0 mi East 2.3 mph - N/A   Mostly Cloudy
2:15 PM - - - N/A% - 12.0 mi ESE 2.3 mph - N/A   Mostly Cloudy
3:00 PM 53 °F - 46 °F 68% 30.01 in 15 mi SSW 2.3 mph - -   Partly Cloudy
3:00 PM 53.6 °F - 46.4 °F 77% 30.01 in 15.0 mi SW 2.3 mph - N/A   Mostly Cloudy
4:00 PM 55.4 °F - 44.6 °F 67% 30.01 in 15.0 mi WSW 10.4 mph - N/A   Scattered Clouds
5:00 PM 55.4 °F - 42.8 °F 63% 30.02 in 15.0 mi West 10.4 mph - N/A   Partly Cloudy
6:00 PM 55.4 °F - 39.2 °F 54% 30.03 in 15.0 mi West 15.0 mph - N/A   Clear
7:00 PM 55.4 °F - 37.4 °F 51% 30.05 in 15.0 mi West 13.8 mph - N/A   Clear
8:00 PM 51.8 °F - 37.4 °F 58% 30.07 in 15.0 mi West 6.9 mph - N/A   Clear
9:00 PM 50 °F - 36 °F 48% 30.12 in 15 mi WSW 8.1 mph - -  
9:00 PM 50.0 °F - 35.6 °F 58% 30.11 in 15.0 mi WSW 9.2 mph - N/A   Clear
10:00 PM 46.4 °F 43.5 °F 37.4 °F 71% 30.14 in 15.0 mi SW 5.8 mph - N/A   Clear
11:00 PM 44.6 °F 39.2 °F 37.4 °F 76% 30.18 in 15.0 mi WSW 10.4 mph - N/A   Scattered Clouds